QPF
0.00 0.00 0.00 0.01 0.00 0.01 0.01 0.01 0.01 0.01 0.01 0.01 0.01 0.00 0.00 0.00 0.00 0.00 0.00 0.01 0.01 0.01 0.02 0.02 0.03 0.02 0.01 0.01 0.01 0.01 0.01 0.02 0.03 0.02 0.02 0.01 0.02 0.04 0.06 0.10 0.11 0.04 0.02
0.00 0.00 0.00 0.01 0.00 0.00 0.01 0.01 0.01 0.01 0.01 0.01 0.01 0.00 0.00 0.00 0.00 0.01 0.01 0.01 0.01 0.01 0.02 0.02 0.04 0.03 0.01 0.01 0.01 0.01 0.01 0.02 0.04 0.04 0.04 0.03 0.04 0.06 0.07 0.10 0.11 0.03 0.04
0.00 0.00 0.00 0.00 0.00 0.00 0.01 0.01 0.01 0.01 0.01 0.01 0.01 0.01 0.01 0.01 0.01 0.01 0.01 0.01 0.01 0.02 0.01 0.01 0.03 0.02 0.01 0.01 0.01 0.01 0.01 0.04 0.05 0.10 0.16 0.09 0.03 0.04 0.07 0.09 0.07 0.04 0.04
0.00 0.00 0.00 0.00 0.00 0.00 0.01 0.01 0.01 0.01 0.01 0.01 0.01 0.01 0.01 0.01 0.01 0.01 0.01 0.01 0.01 0.01 0.01 0.01 0.02 0.01 0.01 0.02 0.01 0.01 0.01 0.04 0.08 0.18 0.20 0.09 0.04 0.03 0.05 0.06 0.05 0.04 0.04
0.00 0.00 0.00 0.00 0.00 0.00 0.01 0.01 0.01 0.01 0.01 0.01 0.01 0.01 0.01 0.01 0.01 0.01 0.01 0.01 0.01 0.01 0.01 0.02 0.02 0.01 0.01 0.01 0.02 0.02 0.02 0.03 0.09 0.20 0.13 0.11 0.07 0.04 0.05 0.06 0.06 0.04 0.03
0.01 0.00 0.00 0.01 0.01 0.00 0.01 0.01 0.01 0.01 0.01 0.01 0.02 0.02 0.02 0.02 0.02 0.01 0.01 0.01 0.01 0.01 0.01 0.02 0.01 0.01 0.01 0.01 0.02 0.02 0.02 0.03 0.13 0.13 0.09 0.10 0.05 0.04 0.05 0.07 0.07 0.05 0.06
0.00 0.00 0.00 0.01 0.01 0.00 0.01 0.01 0.01 0.01 0.01 0.02 0.02 0.02 0.02 0.02 0.02 0.01 0.01 0.01 0.01 0.01 0.02 0.02 0.01 0.00 0.01 0.02 0.02 0.02 0.02 0.03 0.10 0.07 0.12 0.14 0.06 0.03 0.05 0.06 0.05 0.04 0.06
0.00 0.00 0.00 0.00 0.01 0.00 0.01 0.01 0.01 0.01 0.01 0.01 0.01 0.01 0.01 0.02 0.01 0.01 0.01 0.01 0.01 0.02 0.02 0.01 0.00 0.00 0.00 0.00 0.01 0.01 0.01 0.03 0.05 0.04 0.10 0.13 0.04 0.03 0.04 0.05 0.06 0.04 0.05
0.00 0.00 0.01 0.01 0.00 0.00 0.01 0.01 0.01 0.01 0.01 0.01 0.01 0.01 0.02 0.01 0.01 0.01 0.01 0.01 0.01 0.01 0.01 0.00 0.00 0.00 0.00 0.00 0.00 0.01 0.01 0.03 0.06 0.06 0.04 0.04 0.03 0.03 0.03 0.04 0.05 0.04 0.04
0.00 0.01 0.02 0.02 0.02 0.01 0.01 0.01 0.01 0.01 0.01 0.01 0.01 0.01 0.01 0.01 0.01 0.01 0.01 0.01 0.01 0.01 0.01 0.01 0.01 0.01 0.00 0.00 0.00 0.00 0.01 0.04 0.08 0.06 0.03 0.01 0.01 0.03 0.04 0.04 0.06 0.04 0.03
0.03 0.03 0.03 0.04 0.04 0.04 0.03 0.01 0.01 0.01 0.01 0.01 0.01 0.01 0.02 0.05 0.04 0.03 0.02 0.01 0.01 0.01 0.01 0.00 0.01 0.01 0.01 0.00 0.00 0.00 0.01 0.05 0.13 0.07 0.02 0.01 0.02 0.03 0.04 0.04 0.05 0.05 0.04
0.05 0.05 0.03 0.06 0.05 0.03 0.04 0.03 0.04 0.03 0.02 0.03 0.03 0.02 0.08 0.09 0.09 0.06 0.02 0.01 0.01 0.01 0.00 0.00 0.00 0.01 0.02 0.01 0.00 0.01 0.01 0.02 0.07 0.03 0.01 0.01 0.02 0.04 0.03 0.03 0.04 0.05 0.04
0.05 0.05 0.06 0.11 0.08 0.05 0.09 0.06 0.05 0.06 0.05 0.06 0.06 0.05 0.09 0.07 0.06 0.05 0.04 0.02 0.02 0.02 0.02 0.01 0.01 0.02 0.09 0.06 0.02 0.03 0.02 0.02 0.04 0.04 0.02 0.01 0.01 0.03 0.03 0.02 0.03 0.03 0.04
0.08 0.08 0.14 0.16 0.18 0.14 0.09 0.09 0.05 0.04 0.04 0.05 0.06 0.05 0.05 0.08 0.09 0.08 0.07 0.06 0.05 0.06 0.05 0.03 0.02 0.02 0.05 0.07 0.02 0.02 0.01 0.01 0.03 0.06 0.07 0.01 0.01 0.01 0.02 0.02 0.02 0.03 0.03
0.14 0.14 0.22 0.22 0.22 0.27 0.21 0.15 0.08 0.06 0.05 0.04 0.05 0.06 0.05 0.06 0.09 0.09 0.09 0.07 0.06 0.05 0.05 0.04 0.03 0.02 0.02 0.03 0.01 0.01 0.01 0.01 0.03 0.04 0.05 0.01 0.01 0.01 0.02 0.02 0.03 0.04 0.04
0.23 0.20 0.24 0.25 0.23 0.27 0.30 0.25 0.16 0.09 0.07 0.07 0.06 0.05 0.04 0.06 0.07 0.08 0.07 0.08 0.06 0.04 0.03 0.03 0.03 0.03 0.02 0.01 0.01 0.01 0.01 0.01 0.03 0.04 0.05 0.03 0.01 0.01 0.02 0.02 0.03 0.04 0.04
0.31 0.29 0.28 0.25 0.26 0.25 0.26 0.24 0.16 0.10 0.06 0.07 0.08 0.08 0.05 0.05 0.06 0.05 0.06 0.05 0.04 0.03 0.02 0.02 0.03 0.03 0.03 0.02 0.02 0.02 0.02 0.02 0.04 0.06 0.06 0.06 0.03 0.02 0.02 0.03 0.03 0.04 0.06
0.23 0.27 0.32 0.23 0.22 0.27 0.23 0.23 0.21 0.15 0.12 0.09 0.09 0.09 0.06 0.05 0.03 0.04 0.04 0.03 0.03 0.02 0.01 0.01 0.01 0.03 0.03 0.04 0.03 0.02 0.02 0.02 0.01 0.02 0.05 0.07 0.07 0.05 0.03 0.02 0.03 0.03 0.05
0.20 0.26 0.31 0.31 0.22 0.22 0.22 0.22 0.22 0.19 0.16 0.12 0.08 0.06 0.05 0.04 0.02 0.02 0.03 0.03 0.02 0.01 0.01 0.01 0.01 0.03 0.04 0.03 0.01 0.03 0.02 0.02 0.02 0.02 0.02 0.03 0.03 0.04 0.04 0.02 0.02 0.02 0.03
0.20 0.25 0.25 0.27 0.26 0.21 0.20 0.19 0.23 0.19 0.16 0.15 0.11 0.09 0.05 0.04 0.03 0.03 0.02 0.02 0.01 0.01 0.04 0.03 0.02 0.02 0.03 0.02 0.02 0.04 0.03 0.02 0.01 0.01 0.01 0.02 0.02 0.02 0.02 0.02 0.03 0.02 0.02
0.14 0.17 0.21 0.21 0.22 0.20 0.18 0.16 0.19 0.19 0.14 0.14 0.10 0.08 0.05 0.04 0.03 0.03 0.03 0.03 0.02 0.03 0.05 0.05 0.03 0.03 0.03 0.02 0.03 0.05 0.05 0.03 0.01 0.01 0.01 0.01 0.01 0.02 0.03 0.03 0.04 0.04 0.03
0.09 0.11 0.15 0.17 0.13 0.13 0.15 0.15 0.18 0.20 0.15 0.12 0.10 0.10 0.06 0.04 0.02 0.02 0.04 0.03 0.03 0.04 0.03 0.03 0.04 0.03 0.02 0.01 0.02 0.03 0.04 0.05 0.05 0.02 0.01 0.01 0.01 0.01 0.02 0.02 0.04 0.04 0.03
0.08 0.07 0.08 0.10 0.11 0.11 0.16 0.15 0.18 0.20 0.18 0.14 0.12 0.09 0.07 0.05 0.03 0.03 0.02 0.03 0.04 0.03 0.03 0.03 0.02 0.02 0.02 0.01 0.01 0.02 0.03 0.05 0.04 0.03 0.01 0.00 0.01 0.01 0.01 0.02 0.02 0.03 0.04
0.06 0.07 0.09 0.11 0.14 0.13 0.14 0.14 0.14 0.14 0.13 0.11 0.09 0.07 0.06 0.06 0.05 0.03 0.03 0.03 0.03 0.02 0.03 0.01 0.02 0.01 0.01 0.01 0.01 0.01 0.01 0.01 0.03 0.03 0.02 0.01 0.00 0.01 0.01 0.01 0.01 0.02 0.03
0.05 0.06 0.09 0.11 0.14 0.15 0.14 0.13 0.15 0.14 0.12 0.10 0.09 0.09 0.06 0.05 0.05 0.03 0.03 0.04 0.03 0.02 0.02 0.01 0.02 0.01 0.01 0.01 0.01 0.00 0.00 0.00 0.01 0.01 0.02 0.01 0.01 0.01 0.01 0.01 0.01 0.01 0.02
0.04 0.05 0.09 0.10 0.11 0.14 0.14 0.15 0.14 0.14 0.14 0.12 0.09 0.08 0.06 0.04 0.04 0.03 0.03 0.04 0.03 0.03 0.03 0.02 0.01 0.01 0.00 0.01 0.00 0.00 0.00 0.01 0.01 0.01 0.01 0.02 0.02 0.01 0.00 0.00 0.00 0.01 0.01
MSLP
1007.81 1007.97 1008.32 1008.83 1009.42 1010.02 1010.55 1010.95 1011.23 1011.41 1011.54 1011.67 1011.86 1012.11 1012.42 1012.76 1013.09 1013.37 1013.57 1013.70 1013.78 1013.82 1013.87 1013.94 1014.05 1014.20 1014.37 1014.55 1014.72 1014.88 1015.03 1015.18 1015.33 1015.50 1015.68 1015.87 1016.07 1016.26 1016.44 1016.60 1016.75 1016.89 1017.03
1007.52 1007.83 1008.32 1008.96 1009.65 1010.30 1010.85 1011.23 1011.48 1011.62 1011.71 1011.84 1012.03 1012.31 1012.66 1013.03 1013.38 1013.66 1013.84 1013.94 1013.98 1013.99 1014.01 1014.08 1014.19 1014.36 1014.56 1014.77 1014.97 1015.15 1015.33 1015.49 1015.66 1015.85 1016.05 1016.25 1016.46 1016.65 1016.82 1016.98 1017.13 1017.27 1017.41
1007.24 1007.68 1008.32 1009.07 1009.85 1010.56 1011.11 1011.50 1011.73 1011.85 1011.94 1012.06 1012.27 1012.57 1012.94 1013.31 1013.65 1013.91 1014.06 1014.12 1014.13 1014.12 1014.14 1014.21 1014.34 1014.52 1014.74 1014.96 1015.18 1015.37 1015.56 1015.74 1015.92 1016.13 1016.34 1016.57 1016.78 1016.98 1017.15 1017.31 1017.46 1017.60 1017.76
1006.98 1007.56 1008.31 1009.17 1010.02 1010.76 1011.34 1011.73 1011.95 1012.08 1012.17 1012.31 1012.54 1012.85 1013.21 1013.58 1013.89 1014.11 1014.23 1014.27 1014.26 1014.26 1014.29 1014.38 1014.53 1014.73 1014.95 1015.17 1015.37 1015.56 1015.74 1015.92 1016.12 1016.34 1016.58 1016.83 1017.06 1017.27 1017.45 1017.61 1017.75 1017.91 1018.08
1006.79 1007.48 1008.33 1009.26 1010.15 1010.92 1011.51 1011.90 1012.14 1012.27 1012.38 1012.55 1012.79 1013.10 1013.46 1013.81 1014.09 1014.29 1014.39 1014.42 1014.42 1014.44 1014.50 1014.62 1014.80 1015.01 1015.22 1015.42 1015.59 1015.74 1015.89 1016.07 1016.27 1016.52 1016.79 1017.06 1017.32 1017.54 1017.72 1017.88 1018.03 1018.19 1018.37
1006.68 1007.46 1008.38 1009.35 1010.27 1011.05 1011.63 1012.02 1012.26 1012.41 1012.54 1012.73 1012.99 1013.31 1013.66 1013.99 1014.26 1014.44 1014.54 1014.58 1014.62 1014.68 1014.79 1014.95 1015.15 1015.36 1015.55 1015.70 1015.82 1015.92 1016.04 1016.19 1016.41 1016.67 1016.98 1017.29 1017.57 1017.81 1018.00 1018.15 1018.29 1018.44 1018.63
1006.64 1007.48 1008.45 1009.45 1010.37 1011.14 1011.71 1012.09 1012.33 1012.49 1012.65 1012.86 1013.14 1013.47 1013.82 1014.14 1014.40 1014.58 1014.69 1014.77 1014.85 1014.96 1015.13 1015.33 1015.55 1015.74 1015.89 1015.99 1016.04 1016.09 1016.16 1016.30 1016.52 1016.81 1017.16 1017.51 1017.83 1018.09 1018.29 1018.43 1018.55 1018.68 1018.86
1006.63 1007.53 1008.52 1009.53 1010.44 1011.19 1011.74 1012.11 1012.35 1012.52 1012.70 1012.93 1013.23 1013.58 1013.94 1014.26 1014.52 1014.71 1014.85 1014.96 1015.09 1015.25 1015.46 1015.69 1015.91 1016.09 1016.19 1016.23 1016.22 1016.20 1016.24 1016.36 1016.59 1016.92 1017.32 1017.72 1018.09 1018.37 1018.58 1018.71 1018.80 1018.90 1019.05
1006.61 1007.54 1008.56 1009.57 1010.47 1011.20 1011.74 1012.09 1012.33 1012.52 1012.72 1012.98 1013.31 1013.67 1014.04 1014.37 1014.64 1014.83 1014.99 1015.13 1015.29 1015.49 1015.72 1015.97 1016.18 1016.33 1016.38 1016.36 1016.30 1016.24 1016.24 1016.36 1016.61 1016.98 1017.43 1017.89 1018.31 1018.63 1018.85 1018.98 1019.05 1019.11 1019.23
1006.53 1007.49 1008.53 1009.55 1010.45 1011.17 1011.69 1012.05 1012.29 1012.50 1012.73 1013.02 1013.37 1013.76 1014.14 1014.47 1014.74 1014.94 1015.10 1015.25 1015.42 1015.63 1015.86 1016.10 1016.29 1016.41 1016.42 1016.36 1016.26 1016.17 1016.17 1016.30 1016.57 1016.99 1017.49 1018.01 1018.47 1018.84 1019.08 1019.21 1019.27 1019.32 1019.39
1006.34 1007.34 1008.41 1009.45 1010.35 1011.08 1011.61 1011.98 1012.24 1012.47 1012.73 1013.05 1013.43 1013.84 1014.23 1014.57 1014.84 1015.03 1015.18 1015.32 1015.47 1015.65 1015.86 1016.07 1016.23 1016.32 1016.32 1016.23 1016.12 1016.03 1016.04 1016.18 1016.49 1016.94 1017.49 1018.06 1018.57 1018.98 1019.26 1019.41 1019.47 1019.51 1019.56
1006.08 1007.11 1008.22 1009.28 1010.21 1010.95 1011.50 1011.89 1012.18 1012.44 1012.73 1013.08 1013.48 1013.90 1014.30 1014.65 1014.91 1015.09 1015.21 1015.31 1015.43 1015.57 1015.74 1015.91 1016.05 1016.12 1016.11 1016.03 1015.94 1015.87 1015.90 1016.07 1016.40 1016.88 1017.45 1018.05 1018.60 1019.04 1019.36 1019.55 1019.64 1019.68 1019.73
1005.78 1006.86 1008.00 1009.09 1010.04 1010.81 1011.38 1011.79 1012.11 1012.39 1012.71 1013.08 1013.50 1013.93 1014.34 1014.68 1014.94 1015.10 1015.20 1015.26 1015.33 1015.43 1015.55 1015.68 1015.80 1015.87 1015.88 1015.84 1015.78 1015.76 1015.83 1016.02 1016.36 1016.84 1017.41 1018.01 1018.57 1019.04 1019.39 1019.62 1019.75 1019.83 1019.90
1005.54 1006.65 1007.82 1008.93 1009.90 1010.69 1011.28 1011.71 1012.04 1012.34 1012.67 1013.04 1013.47 1013.91 1014.32 1014.66 1014.91 1015.07 1015.14 1015.18 1015.21 1015.26 1015.35 1015.46 1015.57 1015.66 1015.72 1015.74 1015.74 1015.78 1015.89 1016.10 1016.43 1016.88 1017.41 1017.97 1018.50 1018.97 1019.35 1019.62 1019.80 1019.94 1020.05
1005.46 1006.58 1007.75 1008.87 1009.85 1010.63 1011.23 1011.66 1011.99 1012.29 1012.61 1012.97 1013.39 1013.82 1014.23 1014.58 1014.83 1015.00 1015.07 1015.10 1015.11 1015.14 1015.21 1015.32 1015.44 1015.57 1015.68 1015.78 1015.86 1015.96 1016.10 1016.32 1016.62 1017.01 1017.46 1017.95 1018.43 1018.87 1019.25 1019.55 1019.78 1019.97 1020.14
1005.62 1006.72 1007.87 1008.96 1009.91 1010.68 1011.26 1011.67 1011.99 1012.26 1012.55 1012.88 1013.27 1013.68 1014.08 1014.44 1014.72 1014.90 1015.00 1015.05 1015.07 1015.11 1015.18 1015.30 1015.45 1015.63 1015.81 1015.98 1016.14 1016.30 1016.48 1016.69 1016.94 1017.25 1017.60 1017.98 1018.37 1018.75 1019.10 1019.42 1019.69 1019.93 1020.15
1006.04 1007.09 1008.18 1009.21 1010.11 1010.83 1011.37 1011.76 1012.04 1012.27 1012.51 1012.80 1013.14 1013.53 1013.92 1014.28 1014.59 1014.81 1014.96 1015.05 1015.10 1015.17 1015.26 1015.40 1015.59 1015.81 1016.06 1016.30 1016.54 1016.75 1016.95 1017.14 1017.34 1017.55 1017.79 1018.05 1018.34 1018.63 1018.94 1019.24 1019.53 1019.81 1020.08
1006.66 1007.64 1008.64 1009.58 1010.40 1011.06 1011.56 1011.90 1012.15 1012.34 1012.53 1012.76 1013.06 1013.40 1013.78 1014.15 1014.48 1014.76 1014.96 1015.10 1015.21 1015.31 1015.44 1015.60 1015.82 1016.08 1016.37 1016.67 1016.96 1017.22 1017.43 1017.61 1017.76 1017.88 1018.01 1018.15 1018.32 1018.52 1018.76 1019.04 1019.33 1019.64 1019.94
1007.39 1008.26 1009.14 1009.98 1010.71 1011.31 1011.77 1012.08 1012.30 1012.46 1012.61 1012.80 1013.04 1013.35 1013.70 1014.07 1014.44 1014.76 1015.02 1015.22 1015.38 1015.52 1015.67 1015.85 1016.08 1016.36 1016.68 1017.01 1017.33 1017.62 1017.85 1018.02 1018.13 1018.19 1018.22 1018.26 1018.32 1018.44 1018.61 1018.84 1019.13 1019.44 1019.75
1008.08 1008.83 1009.58 1010.30 1010.96 1011.50 1011.94 1012.25 1012.46 1012.61 1012.75 1012.90 1013.11 1013.38 1013.71 1014.08 1014.46 1014.82 1015.13 1015.38 1015.59 1015.76 1015.92 1016.11 1016.33 1016.60 1016.92 1017.26 1017.60 1017.91 1018.15 1018.32 1018.41 1018.43 1018.40 1018.37 1018.35 1018.39 1018.50 1018.68 1018.94 1019.24 1019.56
1008.59 1009.22 1009.85 1010.47 1011.05 1011.56 1011.99 1012.33 1012.58 1012.76 1012.91 1013.06 1013.25 1013.50 1013.82 1014.18 1014.56 1014.94 1015.28 1015.57 1015.80 1015.99 1016.16 1016.33 1016.53 1016.78 1017.08 1017.41 1017.75 1018.06 1018.32 1018.50 1018.60 1018.60 1018.55 1018.47 1018.41 1018.39 1018.44 1018.58 1018.80 1019.08 1019.38
1008.83 1009.35 1009.87 1010.40 1010.93 1011.44 1011.90 1012.29 1012.60 1012.85 1013.05 1013.23 1013.44 1013.68 1013.98 1014.32 1014.70 1015.09 1015.44 1015.75 1016.00 1016.20 1016.36 1016.51 1016.68 1016.90 1017.16 1017.47 1017.80 1018.11 1018.39 1018.59 1018.70 1018.72 1018.67 1018.58 1018.49 1018.44 1018.45 1018.54 1018.71 1018.95 1019.24
1008.78 1009.21 1009.65 1010.12 1010.61 1011.13 1011.63 1012.10 1012.50 1012.84 1013.13 1013.37 1013.60 1013.86 1014.15 1014.49 1014.85 1015.23 1015.59 1015.90 1016.16 1016.36 1016.52 1016.65 1016.80 1016.98 1017.21 1017.49 1017.80 1018.11 1018.40 1018.62 1018.76 1018.80 1018.77 1018.69 1018.59 1018.52 1018.49 1018.54 1018.67 1018.86 1019.11
1008.52 1008.89 1009.26 1009.68 1010.15 1010.68 1011.23 1011.78 1012.29 1012.74 1013.11 1013.43 1013.72 1014.00 1014.29 1014.62 1014.97 1015.33 1015.69 1016.00 1016.27 1016.47 1016.64 1016.77 1016.90 1017.06 1017.27 1017.52 1017.82 1018.12 1018.40 1018.64 1018.80 1018.87 1018.86 1018.79 1018.70 1018.61 1018.55 1018.56 1018.63 1018.78 1018.98
1008.18 1008.51 1008.84 1009.22 1009.67 1010.20 1010.80 1011.41 1012.01 1012.55 1013.02 1013.42 1013.76 1014.07 1014.38 1014.69 1015.03 1015.38 1015.72 1016.04 1016.31 1016.54 1016.72 1016.87 1017.01 1017.17 1017.37 1017.60 1017.87 1018.16 1018.43 1018.66 1018.83 1018.92 1018.92 1018.87 1018.77 1018.67 1018.59 1018.55 1018.57 1018.66 1018.81
1007.91 1008.23 1008.53 1008.87 1009.30 1009.82 1010.42 1011.07 1011.73 1012.34 1012.89 1013.35 1013.74 1014.09 1014.40 1014.71 1015.03 1015.36 1015.69 1016.01 1016.30 1016.56 1016.77 1016.95 1017.12 1017.29 1017.49 1017.72 1017.97 1018.23 1018.48 1018.69 1018.85 1018.93 1018.94 1018.89 1018.79 1018.67 1018.56 1018.48 1018.45 1018.48 1018.57
Thickness
5811 5804 5798 5795 5792 5789 5787 5784 5782 5779 5777 5775 5773 5772 5770 5769 5767 5766 5764 5763 5762 5760 5759 5758 5757 5756 5755 5754 5753 5752 5751 5750 5749 5748 5746 5744 5743 5742 5741 5740 5740 5737 5736
5813 5803 5797 5794 5791 5788 5785 5783 5780 5778 5775 5773 5772 5770 5768 5767 5765 5764 5763 5761 5760 5759 5757 5756 5755 5754 5753 5752 5751 5750 5749 5748 5746 5745 5744 5742 5740 5739 5739 5738 5737 5735 5734
5811 5801 5795 5792 5789 5786 5784 5781 5779 5776 5774 5772 5770 5768 5767 5765 5764 5762 5761 5759 5758 5757 5755 5754 5753 5752 5751 5750 5748 5747 5747 5746 5744 5744 5743 5740 5738 5736 5736 5735 5734 5732 5731
5809 5800 5795 5790 5787 5784 5782 5779 5777 5774 5772 5770 5768 5767 5765 5763 5762 5760 5759 5758 5756 5755 5753 5752 5751 5750 5748 5748 5747 5746 5745 5744 5743 5742 5741 5739 5737 5734 5733 5732 5731 5730 5729
5808 5800 5791 5788 5784 5782 5779 5777 5775 5773 5770 5769 5766 5765 5763 5761 5760 5758 5757 5755 5754 5753 5751 5750 5749 5747 5746 5746 5745 5745 5744 5743 5742 5741 5740 5737 5734 5732 5731 5730 5729 5728 5727
5805 5797 5788 5785 5782 5779 5777 5774 5773 5771 5768 5766 5764 5763 5761 5760 5758 5756 5755 5753 5752 5751 5749 5748 5747 5745 5745 5744 5744 5744 5743 5742 5741 5741 5738 5735 5732 5730 5729 5728 5727 5726 5725
5804 5795 5786 5782 5779 5776 5774 5772 5770 5768 5766 5764 5763 5761 5759 5758 5756 5754 5753 5751 5750 5749 5747 5746 5744 5744 5743 5743 5743 5743 5742 5742 5742 5740 5736 5733 5730 5728 5727 5726 5725 5724 5723
5804 5793 5784 5780 5776 5773 5771 5769 5767 5766 5764 5762 5760 5759 5757 5756 5754 5752 5750 5749 5748 5747 5745 5744 5743 5742 5741 5741 5741 5741 5741 5741 5743 5740 5736 5731 5729 5727 5726 5724 5724 5723 5722
5804 5792 5783 5778 5774 5770 5768 5766 5765 5763 5761 5760 5758 5757 5755 5754 5752 5750 5748 5747 5746 5745 5744 5743 5741 5740 5740 5740 5740 5740 5741 5741 5742 5739 5735 5730 5727 5726 5724 5723 5722 5721 5720
5801 5791 5784 5778 5773 5769 5766 5764 5762 5760 5759 5758 5756 5755 5753 5752 5750 5748 5747 5745 5744 5743 5742 5741 5740 5739 5739 5739 5739 5739 5740 5740 5741 5738 5734 5730 5727 5725 5723 5721 5720 5719 5719
5797 5791 5785 5779 5773 5770 5766 5763 5760 5758 5756 5755 5754 5753 5752 5751 5750 5747 5746 5744 5743 5742 5741 5740 5740 5739 5738 5739 5739 5739 5740 5740 5738 5736 5733 5729 5726 5724 5722 5720 5719 5718 5717
5790 5788 5786 5780 5774 5771 5768 5762 5759 5757 5755 5755 5754 5753 5752 5752 5750 5748 5745 5744 5743 5742 5741 5740 5740 5739 5738 5739 5739 5739 5741 5741 5739 5734 5730 5728 5725 5723 5721 5719 5718 5717 5716
5790 5786 5783 5779 5772 5770 5766 5761 5760 5758 5755 5755 5754 5754 5753 5752 5750 5747 5745 5743 5742 5742 5741 5741 5741 5741 5740 5740 5740 5741 5742 5742 5738 5734 5728 5726 5724 5722 5720 5718 5717 5716 5715
5787 5782 5777 5775 5770 5766 5762 5761 5760 5758 5755 5756 5754 5754 5753 5752 5751 5749 5747 5745 5744 5744 5743 5743 5743 5742 5742 5740 5741 5742 5742 5741 5737 5732 5726 5724 5723 5720 5719 5717 5716 5715 5714
5782 5777 5774 5770 5765 5762 5759 5758 5759 5758 5756 5756 5754 5753 5752 5751 5750 5748 5747 5746 5745 5745 5743 5743 5743 5742 5741 5740 5741 5740 5739 5738 5735 5731 5726 5723 5721 5720 5718 5716 5715 5714 5713
5776 5772 5770 5766 5761 5757 5754 5753 5755 5757 5756 5756 5754 5752 5751 5750 5749 5747 5746 5745 5745 5744 5743 5742 5741 5741 5740 5740 5739 5738 5737 5736 5733 5730 5726 5723 5721 5719 5717 5716 5714 5713 5712
5774 5769 5765 5761 5758 5754 5751 5750 5753 5754 5754 5754 5752 5751 5750 5749 5747 5746 5746 5745 5745 5744 5743 5741 5741 5740 5739 5738 5737 5736 5735 5734 5732 5730 5727 5723 5721 5718 5717 5715 5714 5713 5712
5772 5765 5761 5758 5755 5752 5750 5749 5751 5752 5752 5753 5751 5750 5748 5747 5747 5746 5745 5744 5744 5744 5742 5741 5741 5739 5738 5737 5736 5735 5734 5733 5732 5730 5728 5725 5722 5720 5717 5715 5714 5713 5711
5770 5764 5758 5755 5752 5750 5748 5746 5747 5749 5750 5750 5750 5749 5747 5746 5746 5745 5744 5744 5743 5743 5742 5741 5739 5738 5736 5735 5735 5734 5734 5733 5732 5731 5729 5727 5724 5721 5719 5716 5714 5713 5712
5768 5762 5757 5753 5750 5748 5745 5743 5744 5745 5746 5748 5748 5747 5746 5745 5745 5745 5744 5743 5743 5742 5740 5738 5737 5736 5735 5734 5735 5734 5733 5733 5733 5732 5730 5728 5726 5723 5720 5718 5715 5713 5712
5765 5759 5755 5751 5748 5745 5743 5740 5739 5739 5742 5744 5745 5745 5745 5745 5744 5744 5744 5742 5742 5740 5739 5737 5736 5734 5734 5735 5731 5728 5730 5733 5732 5731 5730 5729 5727 5725 5722 5720 5717 5715 5713
5764 5759 5754 5750 5748 5746 5744 5742 5740 5740 5740 5741 5743 5744 5744 5744 5743 5743 5742 5741 5740 5739 5738 5737 5735 5733 5734 5735 5729 5723 5720 5722 5727 5731 5729 5728 5728 5726 5724 5722 5720 5718 5716
5763 5759 5756 5752 5749 5747 5745 5742 5740 5737 5737 5737 5739 5741 5742 5742 5742 5743 5741 5741 5740 5739 5736 5736 5735 5732 5731 5734 5734 5727 5720 5716 5720 5726 5729 5729 5728 5726 5725 5724 5722 5720 5718
5766 5762 5758 5753 5750 5747 5744 5741 5738 5735 5734 5737 5738 5739 5741 5741 5740 5740 5740 5740 5739 5739 5737 5736 5736 5736 5733 5730 5733 5733 5731 5727 5720 5717 5723 5727 5728 5726 5726 5726 5724 5722 5720
5768 5763 5758 5754 5750 5747 5744 5742 5739 5737 5738 5738 5738 5737 5738 5739 5739 5739 5739 5739 5738 5737 5737 5737 5736 5735 5734 5732 5732 5732 5731 5731 5729 5721 5716 5720 5724 5726 5727 5726 5725 5723 5721
5769 5764 5759 5753 5750 5748 5745 5743 5740 5738 5737 5736 5735 5734 5735 5736 5737 5738 5738 5737 5737 5737 5736 5735 5735 5734 5733 5733 5733 5733 5731 5728 5726 5725 5720 5720 5720 5725 5728 5727 5726 5724 5722